Volver al catálogo

HJS-7B

ActivoCienciaLEO
NORAD 65618·PAYLOAD·🇨🇳 China

Lanzado Sep 16, 2025 desde Jiuquan Satellite Launch Center

Loading…

Próximos Pases (próximas 24 horas)

TLE

ActualizadoSource: Space-Track

Época: Sep 14, 2026, 14:54 UTC

1 65618U 25209B   26257.62134949 -.00000108  00000-0  35417-4 0  9998
2 65618  50.0006  31.6064 0001414  57.8753 302.2261 13.41472295 49641

Sigue HJS-7B en tiempo real con AllMySat

Download on the App Store